Location: Unspecified
(43.7790°N, 0.0000°E)
Time: 02:40:00
(UTC+00:00)

Altair - All Passes

Search period start: 04 April 2026 00:00
Search period end: 14 April 2026 00:00
Orbit: 1502 x 1682 km, 47.2° (Epoch: 29 March)

Date Brightness Start Highest point End Pass type
(mag) Time Alt. Az. Time Alt. Az. Time Alt. Az.
4 Apr - 00:42:06 10° W 00:46:53 15° SW 00:51:39 10° SSW visible
4 Apr - 13:53:41 10° S 14:00:38 22° SE 14:07:25 10° E daylight
4 Apr - 15:54:22 10° SW 16:04:05 63° SSE 16:13:27 10° ENE daylight
4 Apr - 17:59:04 10° W 18:08:52 77° N 18:18:17 10° ENE daylight
4 Apr - 20:04:36 10° WNW 20:14:13 79° NNE 20:23:30 10° E visible
4 Apr - 22:09:39 10° WNW 22:18:45 57° SW 22:27:39 10° SE visible
5 Apr - 00:16:22 10° W 00:21:49 17° SW 00:27:15 10° SSW visible
5 Apr - 13:29:03 10° SSE 13:35:32 20° SE 13:41:53 10° E daylight
5 Apr - 15:29:12 10° SW 15:38:52 60° SE 15:48:12 10° ENE daylight
5 Apr - 17:33:45 10° W 17:43:34 78° NNW 17:53:02 10° ENE daylight
5 Apr - 19:39:18 10° WNW 19:48:57 77° NNE 19:58:14 10° E visible
5 Apr - 21:44:23 10° WNW 21:53:35 61° SW 22:02:33 10° SE visible
5 Apr - 23:50:44 10° W 23:56:45 20° SW 00:02:45 10° SSW visible
6 Apr - 13:04:29 10° SSE 13:10:25 18° SE 13:16:15 10° E daylight
6 Apr - 15:04:03 10° SW 15:13:40 56° SE 15:22:57 10° ENE daylight
6 Apr - 17:08:25 10° WSW 17:18:17 80° NNW 17:27:47 10° ENE daylight
6 Apr - 19:13:59 10° WNW 19:23:40 76° N 19:32:59 10° E visible
6 Apr - 21:19:06 10° WNW 21:28:24 65° SSW 21:37:27 10° SE visible
6 Apr - 23:25:11 10° W 23:31:41 22° SW 23:38:08 10° S visible
7 Apr - 12:40:03 10° SSE 12:45:20 16° SE 12:50:32 10° E daylight
7 Apr - 14:38:55 10° SW 14:48:28 53° SE 14:57:42 10° ENE daylight
7 Apr - 16:43:05 10° WSW 16:53:00 82° NNW 17:02:33 10° ENE daylight
7 Apr - 18:48:40 10° WNW 18:58:23 75° N 19:07:43 10° E visible
7 Apr - 20:53:49 10° WNW 21:03:13 69° SSW 21:12:19 10° SE visible
7 Apr - 22:59:41 10° W 23:06:36 24° SW 23:13:27 10° S visible
8 Apr - 12:15:47 10° SSE 12:20:14 14° ESE 12:24:39 10° E daylight
8 Apr - 14:13:49 10° SSW 14:23:17 49° SE 14:32:26 10° ENE daylight
8 Apr - 16:17:46 10° WSW 16:27:43 85° NNW 16:37:19 10° ENE daylight
8 Apr - 18:23:20 10° W 18:33:05 74° N 18:42:27 10° E daylight
8 Apr - 20:28:32 10° WNW 20:38:01 73° SSW 20:47:11 10° SE visible
8 Apr - 22:34:13 10° WNW 22:41:31 27° SW 22:48:43 10° S visible
9 Apr - 11:51:48 10° SE 11:55:09 12° ESE 11:58:28 10° ESE daylight
9 Apr - 13:48:45 10° SSW 13:58:05 46° SE 14:07:09 10° ENE daylight
9 Apr - 15:52:27 10° WSW 16:02:27 87° NNW 16:12:04 10° ENE daylight
9 Apr - 17:58:00 10° W 18:07:47 73° N 18:17:11 10° E daylight
9 Apr - 20:03:15 10° WNW 20:12:49 76° SSW 20:22:01 10° SE visible
9 Apr - 22:08:47 10° WNW 22:16:26 29° SW 22:23:56 10° S visible
10 Apr - 11:28:44 10° SE 11:30:05 10° ESE 11:31:25 10° ESE daylight
10 Apr - 13:23:42 10° SSW 13:32:55 43° SE 13:41:52 10° ENE daylight
10 Apr - 15:27:09 10° WSW 15:37:11 90° SE 15:46:50 10° ENE daylight
10 Apr - 17:32:40 10° W 17:42:30 73° N 17:51:55 10° E daylight
10 Apr - 19:37:58 10° WNW 19:47:36 80° SSW 19:56:51 10° ESE visible
10 Apr - 21:43:23 10° WNW 21:51:20 32° SW 21:59:06 10° SSE visible
11 Apr - 12:58:41 10° SSW 13:07:44 40° SE 13:16:34 10° ENE daylight
11 Apr - 15:01:52 10° WSW 15:11:55 87° SSE 15:21:35 10° ENE daylight
11 Apr - 17:07:20 10° W 17:17:12 72° N 17:26:39 10° E daylight
11 Apr - 19:12:40 10° WNW 19:22:22 84° SSW 19:31:40 10° ESE visible
11 Apr - 21:18:00 10° WNW 21:26:13 35° SW 21:34:13 10° SSE visible
12 Apr - 12:33:41 10° SSW 12:42:34 37° SE 12:51:14 10° ENE daylight
12 Apr - 14:36:35 10° WSW 14:46:39 84° SSE 14:56:21 10° ENE daylight
12 Apr - 16:41:59 10° W 16:51:53 73° N 17:01:23 10° E daylight
12 Apr - 18:47:23 10° WNW 18:57:08 87° SSW 19:06:28 10° ESE daylight
12 Apr - 20:52:38 10° WNW 21:01:06 38° SW 21:09:19 10° SSE visible
13 Apr - 12:08:44 10° SSW 12:17:25 34° SE 12:25:53 10° ENE daylight
13 Apr - 14:11:20 10° WSW 14:21:23 81° SSE 14:31:07 10° ENE daylight
13 Apr - 16:16:38 10° W 16:26:35 73° N 16:36:08 10° E daylight
13 Apr - 18:22:05 10° WNW 18:31:52 90° SSW 18:41:15 10° ESE daylight
13 Apr - 20:27:18 10° WNW 20:35:58 41° SW 20:44:22 10° SSE visible
